Main page
METAR-TAF:

METAR-TAF

Airports :

Gwalior, India

Rajmata Vijaya Raje Scindia Airport

latitude: 26-17-36N, longitude: 78-13-40E, elevation: 188 m

Current weather observation

The report was made 1 hour and 47 minutes ago, at 03:00 UTC
Calm wind
Temperature 28°C
Humidity 89%
Pressure 1005 hPa
Visibility: 4000 m
Scattered clouds at a height of 2000 ft
Scattered clouds at a height of 10000 ft
haze

METAR: VIGR 240300Z 00000KT 4000 HZ SCT020 SCT100 28/26 Q1005

Time: 10:17 (04:47 UTC)


TAF: missing

Weather observations and forecasts of more than 4000 airports (METAR and TAF reports).

The available stations are represented by yellow and red dots on the map.

Hover mouse over dot to see the name of the station.

Then click to see weather observations and forecasts.

To change the map : click on the green buttons with a black cross to zoom in, on the green button with a dash to zoom out, or on the green arrows for adjacent maps.


METAR-TAF: